PCSAT (NO-44)

Last updated on Thu Oct 30 2025 00:03:10 GMT+0000 (Coordinated Universal Time)

1 26931U 01043C 25302.52036019 .00000254 00000+0 12602-3 0 9991 2 26931 67.0485 120.8283 0007147 272.4457 87.5826 14.31815498257427
UTC large
Height (km)
Speed (km/s)
/
Latitude / Longitude
Inclination (degrees)
Orbital Period (minutes)
Azimuth
Elevation
Range (km)
Doppler Factor

Next 0 passes for location: London (51.5072 / 0.1276)

Sorry there are no passes over London.